This demonstration page uses our WeatherBlox Daily Observations layout. Learn more.

Left ArrowRight Arrow

39.08367, -84.50855

Hourly Observations for December 28, 2019

Temp ( °F °C ) Dew Point ( °F °C ) Humidity (%) Winds ( mph kmh ) Pressure ( in mb ) Visibility ( mi km ) Precip ( " mm )
12:04 am 00:04 Cloudy with Mist and Fog 48 8.9 45 7.2 89 89 N 5 7 30.28 1025 6 10 N/A
12:43 am 00:43 Cloudy with Mist and Fog 48 8.9 45 7.2 89 89 N N/A 30.27 1025 6 10 N/A
12:53 am 00:53 Cloudy with Mist and Fog 48 8.9 45 7.2 89 89 ENE 5 7 30.25 1025 6 10 N/A
1:03 am 01:03 Cloudy with Mist and Fog 48 8.9 45 7.2 89 89 E 5 7 30.27 1025 6 10 N/A
1:11 am 01:11 Cloudy with Mist and Fog 48 8.9 45 7.2 89 89 E 3 6 30.26 1025 6 10 N/A
1:53 am 01:53 Cloudy 48 8.9 45 7.2 89 89 NNE 5 7 30.25 1024 7 11 N/A
2:00 am 02:00 Cloudy 48 8.9 45 7.2 89 89 NNE 5 7 30.26 1025 7 11 N/A
2:53 am 02:53 Cloudy with Mist and Fog 48 8.9 45 7.2 89 89 NE 3 6 30.25 1024 6 10 N/A
3:44 am 03:44 Cloudy with Mist and Fog 47 8.3 43 6.1 86 86 NNE 7 11 30.26 1025 6 10 N/A
3:53 am 03:53 Cloudy with Mist and Fog 47 8.3 43 6.1 86 86 NNE 6 9 30.26 1025 6 10 N/A
4:53 am 04:53 Cloudy with Mist and Fog 46 7.8 43 6.1 89 89 ENE 5 7 30.25 1025 5 8 N/A
5:53 am 05:53 Cloudy with Mist and Fog 46 7.8 43 6.1 89 89 ENE 5 7 30.24 1024 4 6 N/A
6:07 am 06:07 Cloudy with Mist and Fog 46 7.8 43 6.1 89 89 NNE 3 6 30.26 1025 3 5 N/A
6:41 am 06:41 Cloudy with Mist and Fog 46 7.8 44 6.7 93 93 NE 5 7 30.27 1025 3 4 N/A
6:53 am 06:53 Cloudy with Mist and Fog 46 7.8 45 7.2 96 96 N N/A 30.26 1025 2 2 N/A
7:28 am 07:28 Cloudy with Mist and Fog 46 7.8 44 6.7 93 93 NNE 6 9 30.28 1025 3 4 N/A
7:53 am 07:53 Cloudy with Mist and Fog 45 7.2 44 6.7 97 97 NNE 7 11 30.27 1025 3 4 N/A
8:32 am 08:32 Mostly Cloudy with Fog 44 6.7 44 6.7 100 100 ENE 10 17 30.27 1025 0 0 N/A
8:53 am 08:53 Mostly Cloudy with Fog 44 6.7 44 6.7 100 100 NE 6 9 30.27 1025 0 0 N/A
9:53 am 09:53 Cloudy with Mist and Fog 46 7.8 45 7.2 96 96 NNE 6 9 30.26 1025 1 2 N/A
10:53 am 10:53 Cloudy with Mist and Fog 50 10 46 7.8 86 86 NNE 7 11 30.24 1024 3 5 N/A
11:53 am 11:53 Hazy 55 12.8 49 9.4 80 80 VRB 5 7 30.20 1023 6 10 N/A
12:53 pm 12:53 Mostly Sunny 59 15 49 9.4 69 69 NNW 5 7 30.17 1022 9 14 N/A
1:53 pm 13:53 Cloudy 61 16.1 51 10.6 70 70 SE 8 13 30.13 1020 10 16 N/A
2:53 pm 14:53 Cloudy 60 15.6 51 10.6 72 72 SE 6 9 30.11 1020 10 16 0.00 0.00
3:53 pm 15:53 Cloudy 61 16.1 51 10.6 70 70 VRB 5 7 30.10 1019 10 16 N/A
4:53 pm 16:53 Mostly Cloudy 61 16.1 51 10.6 70 70 N N/A 30.10 1019 10 16 N/A
5:53 pm 17:53 Cloudy with Light Rain 59 15 52 11.1 78 78 E 3 6 30.10 1019 9 14 0.00 0.00
6:53 pm 18:53 Cloudy 55 12.8 53 11.7 93 93 N N/A 30.09 1019 10 16 0.00 0.00
7:53 pm 19:53 Cloudy 55 12.8 53 11.7 93 93 NE 5 7 30.08 1019 10 16 N/A
8:53 pm 20:53 Mostly Cloudy 54 12.2 52 11.1 93 93 N 5 7 30.07 1018 10 16 N/A
9:53 pm 21:53 Cloudy 54 12.2 51 10.6 90 90 NNE 3 6 30.04 1017 10 16 N/A
10:53 pm 22:53 Mostly Cloudy with Light Rain 54 12.2 51 10.6 90 90 N 5 7 30.01 1016 10 16 0.00 0.00
11:53 pm 23:53 Cloudy 53 11.7 51 10.6 93 93 N N/A 29.99 1016 10 16 0.00 0.00

Powered by AerisWeather